BLOCK DM-SL R/B, 29521

Orbit data source: Space-Track

BLOCK DM-SL R/B, 29521 is space debris in HEO originally from a launch on Mon, 30 Oct 2006 UTC launched from the Sea Launch (SEAL). Debris objects in space refer to the collection of defunct objects orbiting the Earth. Examples of debris include non-operational satellites, rocket bodies, and fragments generated from explosions, collisions, or faulty payload assembly.

Loading next visibility...
Identifier
29521, 2006-049B
Orbit
HEO
Country
Flag of UnknownUnknown / SEAL
Related business
Manufacturer
RKKE
Mission
Spacecraft
Bus & Motor
BLOK DM2, 11D58M
Mass
~3,070 kg wet, 3,070 kg dry
Launch date (UTC)
2006-10-30 (19 years ago)
Launch vehicle
Unknown
Launch site
Sea Launch (SEAL)
Object type
Payload
Rocket body
Debris
Shape & HBR
Cyl, 3.1 m
Radar Cross Section
23.684 m², Large (>1 m²)

Expand to show TLE details & history
Last TLE update: 11 hours ago

TLE from 11 hours ago
0 BLOCK DM-SL R/B
1 29521U 06049B   25259.06239331 -.00000253  00000-0  00000-0 0  9999
2 29521   0.0724 136.4230 6927309 235.5912 350.8973  2.18866441150939
Epoch: 2025-09-16T01:29Z
TLE epoch observation values (Epoch: 2025-09-16T01:29:50.781Z)
Latitude
0.02374°
Longitude
-64.70801°
Altitude
3,204.147 km
Speed
8.202 km/s
True Right ascension
20h 52m 02s
True Declination
0° 01' 25"
Sunlit
Object was in full shadow at epoch
Visualization orbit readout
Latitude
Unknown
Longitude
Unknown
Altitude
Unknown
Speed
Unknown
Apparent Right ascension
Unknown
Apparent Declination
Unknown
Sunlit
N/A
Visualization observer readout
Local Sidereal Time
05:33:57
Azimuth
Unknown
Elevation
Unknown
Doppler factor
Unknown
Orbital elements
Apogee altitude
36,046.531 km
Perigee altitude
1,322.904 km
Semi-major axis
25,062.855 km
Eccentricity
0.69273
Inclination
0.0724°
RAAN
136.423°
Arg. of periapsis
235.5912°
True anomaly
300.60113°
Mean anomaly
350.8973°
Eccentric anomaly
332.68243°
Mean motion
0.54701 °/min
Orbital period
658.12 mins
BSTAR
0
Loading maneuver chart data...
Computing Atmospheric mass density...
Loading historical data...
Loading historical data...
Loading historical data...
Loading historical data...
Loading historical data...
Loading historical data...
Loading historical data...
Other satellites on launch #49 in the year 2006 (2006-10-30 UTC)

Documentation

Showing up to 5 results
|